Voltar ao catálogo

USA 133

AtivoNavegaçãoHEO
NORAD 25017·PAYLOAD·🇺🇸 United States

Lançado Oct 24, 1997 de Vandenberg Space Force Base

Loading…

Próximas Passagens (próximas 24 horas)

TLE

ObsoletoSource: Space-Track

Época: Nov 30, 1997, 09:16 UTC

1 25017U 97064A   97334.38665906  .00079636 -30957-6  38009-3 0  9995
2 25017 034.5124 028.6818 3942148 277.6608 040.4643 07.71857302 30033

Acompanhe USA 133 em tempo real com AllMySat

Download on the App Store